Weather History for Juneau, WI

Change the Weather History Date:

Monday, September 2, 2013

  Actual Average Record
Temperature  
Mean Temperature 60 °F -  
Max Temperature 68 °F 76 °F 91 °F (2008)
Min Temperature 52 °F 55 °F 42 °F (1976)
Degree Days  
Heating Degree Days 5    
Growing Degree Days 10 (Base 50)    
Moisture  
Dew Point 52 °F    
Average Humidity 72    
Maximum Humidity 93    
Minimum Humidity 47    
Precipitation  
Precipitation 0.00 in - - ()
Sea Level Pressure  
Sea Level Pressure 29.96 in    
Wind  
Wind Speed 5 mph (NNW)    
Max Wind Speed 12 mph    
Max Gust Speed 17 mph    
Visibility 10 miles    
Events      
Averages and records for this station are not official NWS values.
T = Trace of Precipitation, MM = Missing Value Source: NWS Daily Summary

Daily Weather History Graph

Daily Weather History Graph

Search for Another Location

Airport:

Trip Planner

Search our weather history database for the weather conditions in past years. The results will help you decide how hot, cold, wet, or windy it might be!

Date:

Astronomy

Sep. 02, 2013 Rise Set
Actual Time 6:20 AM CDT 7:27 PM CDT
Civil Twilight 5:50 AM CDT 7:57 PM CDT
Nautical Twilight 5:15 AM CDT 8:32 PM CDT
Astronomical Twilight 4:38 AM CDT 9:08 PM CDT
Moon 3:33 AM CDT (9/2) 5:43 PM CDT (9/2)
Length of Visible Light 14h 06m
Length of Day
13h 07m
Waning Crescent, 8% of the Moon is Illuminated
Sep 2
Waning Crescent
Sep 5
New
Sep 12
First Quarter
Sep 19
Full
Sep 26
Last Quarter

Hourly Weather History & Observations

Time (CDT) Temp. Dew Point Humidity Pressure Visibility Wind Dir Wind Speed Gust Speed Precip Events Conditions
12:15 AM 61.0 °F 55.4 °F 82% 29.85 in 10.0 mi Calm Calm - N/A   Clear
12:35 AM 59.5 °F 55.6 °F 87% 29.85 in 10.0 mi WNW 3.5 mph - N/A   Clear
12:55 AM 59.5 °F 55.0 °F 85% 29.85 in 10.0 mi Calm Calm - N/A   Clear
1:15 AM 59.5 °F 56.5 °F 90% 29.87 in 10.0 mi Calm Calm - N/A   Clear
1:35 AM 59.9 °F 54.9 °F 83% 29.87 in 10.0 mi Calm Calm - N/A   Clear
1:55 AM 59.4 °F 55.8 °F 88% 29.87 in 10.0 mi Calm Calm - N/A   Clear
2:15 AM 58.3 °F 56.1 °F 93% 29.87 in 10.0 mi WNW 3.5 mph - N/A   Clear
2:35 AM 59.7 °F 56.7 °F 90% 29.88 in 10.0 mi Calm Calm - N/A   Clear
2:55 AM 60.1 °F 57.0 °F 90% 29.88 in 10.0 mi NNW 5.8 mph - N/A   Scattered Clouds
3:15 AM 60.3 °F 57.2 °F 90% 29.88 in 10.0 mi North 3.5 mph - N/A   Scattered Clouds
3:35 AM 59.9 °F 57.2 °F 91% 29.89 in 10.0 mi North 5.8 mph - N/A   Clear
3:55 AM 59.9 °F 57.7 °F 93% 29.89 in 10.0 mi NNW 4.6 mph - N/A   Mostly Cloudy
4:15 AM 60.8 °F 58.8 °F 93% 29.89 in 10.0 mi NNW 4.6 mph - N/A   Overcast
4:35 AM 61.3 °F 59.0 °F 92% 29.90 in 10.0 mi NNW 5.8 mph - N/A   Overcast
4:55 AM 62.1 °F 58.6 °F 89% 29.90 in 10.0 mi NNW 8.1 mph - N/A   Overcast
5:15 AM 62.1 °F 58.5 °F 88% 29.91 in 10.0 mi NNW 6.9 mph - N/A   Overcast
5:35 AM 61.3 °F 58.1 °F 89% 29.91 in 10.0 mi NNW 4.6 mph - N/A   Mostly Cloudy
5:55 AM 60.8 °F 57.6 °F 89% 29.92 in 10.0 mi NNW 5.8 mph - N/A   Mostly Cloudy
6:15 AM 60.1 °F 56.7 °F 88% 29.92 in 10.0 mi NW 5.8 mph - N/A   Scattered Clouds
6:35 AM 59.2 °F 56.3 °F 90% 29.93 in 10.0 mi NNW 5.8 mph - N/A   Clear
6:55 AM 59.0 °F 55.8 °F 89% 29.94 in 10.0 mi NNW 5.8 mph - N/A   Clear
7:15 AM 59.0 °F 56.1 °F 90% 29.94 in 10.0 mi NW 6.9 mph - N/A   Scattered Clouds
7:35 AM 60.3 °F 56.7 °F 88% 29.95 in 10.0 mi NNW 8.1 mph - N/A   Overcast
7:55 AM 60.6 °F 56.5 °F 86% 29.95 in 10.0 mi NNW 8.1 mph - N/A   Overcast
8:15 AM 61.3 °F 56.1 °F 83% 29.96 in 10.0 mi NNW 10.4 mph 16.1 mph N/A   Overcast
8:35 AM 62.2 °F 55.8 °F 79% 29.96 in 10.0 mi NNW 10.4 mph 17.3 mph N/A   Mostly Cloudy
8:55 AM 63.5 °F 55.9 °F 76% 29.96 in 10.0 mi NNW 10.4 mph - N/A   Mostly Cloudy
9:15 AM 63.1 °F 54.0 °F 72% 29.97 in 10.0 mi North 6.9 mph - N/A   Mostly Cloudy
9:35 AM 64.9 °F 52.2 °F 63% 29.97 in 10.0 mi NNW 9.2 mph - N/A   Overcast
9:55 AM 64.4 °F 52.5 °F 65% 29.98 in 10.0 mi NNW 9.2 mph - N/A   Overcast
10:15 AM 64.6 °F 52.5 °F 65% 29.98 in 10.0 mi North 8.1 mph - N/A   Overcast
10:35 AM 64.0 °F 52.0 °F 65% 29.99 in 10.0 mi North 5.8 mph - N/A   Overcast
10:55 AM 64.6 °F 52.9 °F 66% 29.99 in 10.0 mi NW 8.1 mph - N/A   Overcast
11:15 AM 64.4 °F 51.3 °F 62% 30.00 in 10.0 mi NW 8.1 mph - N/A   Overcast
11:35 AM 65.5 °F 50.9 °F 59% 30.00 in 10.0 mi NW 6.9 mph - N/A   Overcast
11:55 AM 64.6 °F 50.9 °F 61% 30.00 in 10.0 mi NW 5.8 mph - N/A   Overcast
12:15 PM 64.4 °F 50.4 °F 60% 30.00 in 10.0 mi NW 9.2 mph - N/A   Overcast
12:35 PM 64.0 °F 50.5 °F 61% 30.00 in 10.0 mi NNW 6.9 mph - N/A   Overcast
12:55 PM 66.2 °F 50.2 °F 56% 30.00 in 10.0 mi NW 8.1 mph - N/A   Overcast
1:15 PM 65.7 °F 50.0 °F 57% 30.00 in 10.0 mi NW 6.9 mph - N/A   Overcast
1:35 PM 66.0 °F 49.8 °F 56% 30.00 in 10.0 mi North 6.9 mph - N/A   Overcast
1:55 PM 66.2 °F 49.5 °F 55% 30.00 in 10.0 mi North 6.9 mph - N/A   Overcast
2:15 PM 67.1 °F 49.5 °F 53% 29.99 in 10.0 mi NNW 10.4 mph - N/A   Overcast
2:35 PM 67.3 °F 48.2 °F 50% 29.98 in 10.0 mi NW 9.2 mph - N/A   Overcast
2:55 PM 68.0 °F 47.1 °F 47% 29.99 in 10.0 mi NW 8.1 mph - N/A   Overcast
3:15 PM 67.5 °F 48.0 °F 50% 29.99 in 10.0 mi NNW 9.2 mph - N/A   Overcast
3:35 PM 68.0 °F 47.3 °F 47% 29.98 in 10.0 mi NNW 11.5 mph - N/A   Overcast
3:55 PM 66.6 °F 47.8 °F 51% 29.99 in 10.0 mi NW 6.9 mph - N/A   Overcast
4:15 PM 66.6 °F 48.2 °F 52% 29.99 in 10.0 mi NW 5.8 mph - N/A   Overcast
4:35 PM 66.4 °F 47.5 °F 51% 29.99 in 10.0 mi WNW 6.9 mph - N/A   Overcast
4:55 PM 67.3 °F 47.1 °F 48% 29.99 in 10.0 mi NNW 5.8 mph - N/A   Overcast
5:15 PM 66.2 °F 48.4 °F 53% 29.99 in 10.0 mi NNW 6.9 mph - N/A   Overcast
5:35 PM 66.4 °F 46.2 °F 48% 29.99 in 10.0 mi NNW 6.9 mph - N/A   Overcast
5:55 PM 65.8 °F 47.7 °F 52% 29.99 in 10.0 mi NW 6.9 mph - N/A   Overcast
6:15 PM 65.7 °F 48.4 °F 54% 30.00 in 10.0 mi NNW 5.8 mph - N/A   Overcast
6:35 PM 65.3 °F 48.2 °F 54% 30.00 in 10.0 mi North 8.1 mph - N/A   Overcast
6:55 PM 64.6 °F 49.1 °F 57% 30.00 in 10.0 mi North 8.1 mph - N/A   Overcast
7:15 PM 64.2 °F 48.0 °F 56% 30.00 in 10.0 mi North 8.1 mph - N/A   Overcast
7:35 PM 62.2 °F 48.4 °F 60% 30.00 in 10.0 mi North 8.1 mph - N/A   Mostly Cloudy
7:55 PM 61.0 °F 48.7 °F 64% 30.01 in 10.0 mi North 5.8 mph - N/A   Scattered Clouds
8:15 PM 59.2 °F 48.9 °F 69% 30.01 in 10.0 mi North 4.6 mph - N/A   Clear
8:35 PM 57.9 °F 49.1 °F 72% 30.02 in 10.0 mi North 3.5 mph - N/A   Clear
8:55 PM 56.7 °F 49.3 °F 76% 30.02 in 10.0 mi North 4.6 mph - N/A   Clear
9:15 PM 55.6 °F 48.6 °F 77% 30.03 in 10.0 mi NNW 5.8 mph - N/A   Clear
9:35 PM 55.8 °F 48.4 °F 76% 30.03 in 10.0 mi NNW 5.8 mph - N/A   Clear
9:55 PM 54.7 °F 48.2 °F 79% 30.03 in 10.0 mi NNW 4.6 mph - N/A   Clear
10:15 PM 54.5 °F 47.8 °F 78% 30.03 in 10.0 mi North 5.8 mph - N/A   Clear
10:35 PM 53.8 °F 47.7 °F 80% 30.03 in 10.0 mi NNW 3.5 mph - N/A   Clear
10:55 PM 53.4 °F 47.7 °F 81% 30.03 in 10.0 mi North 3.5 mph - N/A   Clear
11:15 PM 52.7 °F 47.5 °F 82% 30.03 in 10.0 mi North 3.5 mph - N/A   Clear
11:35 PM 52.7 °F 47.5 °F 82% 30.03 in 10.0 mi North 3.5 mph - N/A   Clear
11:55 PM 52.0 °F 47.3 °F 84% 30.03 in 10.0 mi North 3.5 mph - N/A   Clear